This demonstration page uses our WeatherBlox Daily Observations layout. Learn more.

Left ArrowRight Arrow

39.92423, -83.80882

Hourly Observations for July 13, 2015

Temp ( °F °C ) Dew Point ( °F °C ) Humidity (%) Winds ( mph kmh ) Pressure ( in mb ) Visibility ( mi km ) Precip ( " mm )
1:14 am 01:14 Cloudy 70 21 68 20 94 94 NW 9 15 29.91 1013 7 11 0.00 0.00
1:56 am 01:56 Cloudy with Mist and Fog 69 20.5 67 19.4 93 93 NNW 7 11 29.91 1013 6 10 0.00 0.00
2:56 am 02:56 Cloudy with Mist and Fog 68 20 67 19.4 96 96 NW 7 11 29.90 1013 4 6 0.00 0.00
3:11 am 03:11 Cloudy with Mist and Fog 68 20 66 19 94 94 NNW 8 13 29.88 1012 5 8 0.00 0.00
3:56 am 03:56 Cloudy with Mist and Fog 67 19.4 67 19.4 100 100 NNW 10 17 29.89 1012 5 8 0.00 0.00
4:56 am 04:56 Cloudy with Mist and Fog 66 18.8 66 18.8 100 100 NNW 10 17 29.89 1012 6 10 0.00 0.00
5:39 am 05:39 Cloudy with Mist and Fog 66 19 66 19 100 100 NW 6 9 29.88 1012 6 10 0.00 0.00
5:56 am 05:56 Cloudy with Mist and Fog 65 18.3 65 18.3 100 100 N 6 9 29.89 1012 5 8 0.00 0.00
6:56 am 06:56 Cloudy with Mist and Fog 66 18.8 66 18.8 100 100 Calm 29.88 1012 3 4 0.00 0.00
7:14 am 07:14 Cloudy with Mist and Fog 66 19 66 19 100 100 WSW 3 6 29.88 1012 1 2 0.00 0.00
7:24 am 07:24 Cloudy with Mist and Fog 66 19 66 19 100 100 Calm 29.88 1012 1 2 0.00 0.00
7:56 am 07:56 Cloudy with Mist and Fog 66 18.8 66 18.8 100 100 ENE 3 6 29.90 1013 1 2 0.00 0.00
11:31 am 11:31 Cloudy 72 22 68 20 88 88 VRB 6 9 29.85 1011 7 11 0.00 0.00
11:56 am 11:56 Mostly Cloudy 73 22.7 69 20.5 87 87 SSW 7 11 29.86 1011 7 11 0.00 0.00
12:10 pm 12:10 Mostly Cloudy 73 23 70 21 89 89 SW 7 11 29.85 1011 7 11 0.00 0.00
12:46 pm 12:46 Partly Cloudy 73 23 66 19 78 78 NNW 22 35 29.91 1013 2 3 0.00 0.03
12:48 pm 12:48 Mostly Cloudy with Mist and Fog 72 22 66 19 83 83 NNW 21 33 29.91 1013 1 2 0.00 0.03
12:56 pm 12:56 Mostly Cloudy with Mist and Fog 67 19.4 65 18.3 93 93 NW 14 22 29.94 1014 1 1 0.03 0.76
1:01 pm 13:01 Cloudy with Strong Thunderstorms 66 19 64 18 94 94 WNW 16 26 29.91 1013 1 1 0.06 1.52
1:08 pm 13:08 Cloudy with Strong Thunderstorms 66 19 64 18 94 94 NW 14 22 29.91 1013 1 1 0.14 3.56
1:18 pm 13:18 Mostly Cloudy with Mist and Fog 64 18 64 18 100 100 WNW 10 17 29.91 1013 1 2 0.20 5.08
1:22 pm 13:22 Cloudy with Mist and Fog 64 18 64 18 100 100 WNW 9 15 29.91 1013 2 2 0.20 5.08
1:26 pm 13:26 Mostly Cloudy with Mist and Fog 64 18 64 18 100 100 WNW 8 13 29.91 1013 3 5 0.20 5.08
1:37 pm 13:37 Mostly Cloudy with Mist and Fog 64 18 64 18 100 100 WNW 7 11 29.91 1013 3 5 0.21 5.33
1:56 pm 13:56 Cloudy with Nearby Thunderstorms 65 18.3 65 18.3 100 100 NW 9 15 29.92 1013 2 3 0.25 6.35
1:58 pm 13:58 Cloudy with Nearby Thunderstorms 64 18 64 18 100 100 WNW 8 13 29.91 1013 2 3 0.01 0.25
2:12 pm 14:12 Cloudy with Thunderstorms 64 18 64 18 100 100 WNW 5 7 29.88 1012 3 4 0.05 1.27
2:16 pm 14:16 Cloudy with Nearby Thunderstorms 64 18 64 18 100 100 W 3 6 29.88 1012 3 5 0.06 1.52
2:19 pm 14:19 Cloudy with Rain 64 18 64 18 100 100 VRB 3 6 29.85 1011 3 5 0.07 1.78
2:29 pm 14:29 Cloudy with Light Rain 64 18 64 18 100 100 SE 7 11 29.83 1010 4 6 0.07 1.78
2:56 pm 14:56 Mostly Cloudy with Mist and Fog 65 18.3 65 18.3 100 100 S 9 15 29.80 1009 5 8 0.08 2.03
3:05 pm 15:05 Mostly Cloudy with Light Rain 64 18 64 18 100 100 SSE 10 17 29.77 1008 5 8 0.00 0.03
3:56 pm 15:56 Sunny 67 19.4 67 19.4 100 100 S 6 9 29.77 1008 8 13 0.00 0.03
4:56 pm 16:56 Mostly Sunny 72 22.2 68 20 87 87 SSE 5 7 29.78 1008 8 13 0.00 0.00
5:56 pm 17:56 Mostly Sunny 74 23.3 69 20.5 84 84 S 8 13 29.77 1008 8 13 0.00 0.00
6:56 pm 18:56 Partly Cloudy 73 22.7 69 20.5 87 87 S 7 11 29.77 1008 8 13 0.00 0.03
7:56 pm 19:56 Mostly Cloudy 73 22.7 69 20.5 87 87 S 5 7 29.75 1008 8 13 0.00 0.00
8:56 pm 20:56 Mostly Cloudy 72 22.2 69 20.5 90 90 S 7 11 29.75 1008 7 11 0.00 0.00
9:56 pm 21:56 Mostly Cloudy 71 21.6 69 20.5 93 93 S 7 11 29.73 1007 9 14 0.00 0.00
10:56 pm 22:56 Clear 70 21.1 69 20.5 96 96 S 7 11 29.68 1005 9 14 0.00 0.00
11:10 pm 23:10 Mostly Clear with Nearby Thunderstorms 70 21 70 21 100 100 S 9 15 29.68 1005 9 14 0.00 0.00
11:25 pm 23:25 Clear with Thunderstorms 72 22 70 21 94 94 SSW 8 13 29.68 1005 8 13 0.00 0.00
11:56 pm 23:56 Mostly Cloudy with Strong Thunderstorms 71 21.6 70 21.1 97 97 SSW 15 24 29.71 1006 3 5 0.03 0.76

Powered by AerisWeather